Regional Weather Roundup
Issued by NWS

Home | Current Version | Previous Version | Graphics & Text | Print | Product List | Glossary On
Versions: 1 2 3 4 5 6 7 8 9 10 11 12 13 14 15 16 17 18 19 20 21 22 23 24 25 26 27 28 29 30 31 32 33 34 35 36 37 38 39 40 41 42 43 44 45 46 47 48 49 50
000
ASUS43 KBIS 291302
RWRND

NORTH DAKOTA REGIONAL WEATHER ROUNDUP
NATIONAL WEATHER SERVICE BISMARCK ND
800 AM CDT FRI MAY 29 2015

NOTE: "FAIR" INDICATES FEW OR NO CLOUDS BELOW 12,000 FEET WITH NO
SIGNIFICANT WEATHER AND/OR OBSTRUCTIONS TO VISIBILITY.


NDZ001>003-009>011-017-291400-
NORTHWEST NORTH DAKOTA

CITY           SKY/WX    TMP DP  RH WIND       PRES   REMARKS
WILLISTON      CLOUDY    45  32  60 N13       30.28R
MINOT          CLOUDY    45  35  68 N18G24    30.21R
MINOT AFB      CLOUDY    46  42  84 N15G23    30.22R
$$

NDZ018>021-031>035-040>046-291400-
SOUTHWEST NORTH DAKOTA

CITY           SKY/WX    TMP DP  RH WIND       PRES   REMARKS
BISMARCK       CLOUDY    49  43  80 N18       30.16R
DICKINSON      CLOUDY    44  36  73 N13       30.20R
GARRISON         N/A     47  37  68 N23       30.19R
HETTINGER ARPT CLOUDY    45  42  89 N21G29    30.19R
$$

NDZ004>008-012>016-024-026-027-054-291400-
NORTHEAST NORTH DAKOTA

CITY           SKY/WX    TMP DP  RH WIND       PRES   REMARKS
GRAND FORKS    CLOUDY    45  40  82 N26G36    30.08R
GRND FRKS AFB  CLOUDY    45  38  76 N25G39    30.09R
DEVILS LAKE    CLOUDY    46  34  61 N24G32    30.13R
$$

NDZ022-023-025-028>030-036>039-047>053-291400-
SOUTHEAST NORTH DAKOTA

CITY           SKY/WX    TMP DP  RH WIND       PRES   REMARKS
FARGO          CLOUDY    50  45  83 N24G36    30.01R
JAMESTOWN      CLOUDY    48  44  86 N28G35    30.07R
$$




USA.gov is the U.S. government's official web portal to all federal, state and local government web resources and services.